カタログに戻る

DELTA 1 DEB

運用中PO
NORAD 9003·DEBRIS·🇺🇸 United States

打ち上げ Jan 22, 1975 から Vandenberg Space Force Base

Loading…

次のパス (今後24時間)

TLE

最新Source: Space-Track

元期: Sep 14, 2026, 12:13 UTC

1 09003U 75004CM  26257.50958612  .00001506  00000-0  15258-3 0  9992
2 09003  98.2994  85.5832 0020114 311.2380  48.7104 14.92476778681466

AllMySatでDELTA 1 DEBをリアルタイム追跡

Download on the App Store